TimeCST,TemperatureF,Dew PointF,Humidity,Sea Level PressureIn,VisibilityMPH,Wind Direction,Wind SpeedMPH,Gust SpeedMPH,PrecipitationIn,Events,Conditions,WindDirDegrees,DateUTC
12:55 AM,19.9,15.1,81,30.63,10.0,WNW,8.1,-,N/A,,Clear,290,2013-11-23 06:55:00
1:55 AM,18.0,14.0,84,30.64,10.0,WNW,5.8,-,N/A,,Clear,290,2013-11-23 07:55:00
2:55 AM,19.9,12.9,74,30.64,10.0,NW,8.1,-,N/A,,Clear,310,2013-11-23 08:55:00
3:55 AM,21.0,12.9,71,30.65,10.0,NNW,9.2,-,N/A,,Clear,330,2013-11-23 09:55:00
4:55 AM,21.0,14.0,74,30.66,10.0,North,10.4,-,N/A,,Clear,350,2013-11-23 10:55:00
5:55 AM,19.9,14.0,78,30.67,10.0,NNW,11.5,-,N/A,,Clear,340,2013-11-23 11:55:00
6:55 AM,19.9,12.0,71,30.71,10.0,NNW,11.5,-,N/A,,Clear,340,2013-11-23 12:55:00
7:55 AM,19.9,9.0,62,30.74,10.0,NNW,17.3,25.3,N/A,,Clear,340,2013-11-23 13:55:00
8:55 AM,19.9,10.0,65,30.77,10.0,North,17.3,21.9,N/A,,Clear,350,2013-11-23 14:55:00
9:55 AM,19.9,10.0,65,30.79,10.0,NNW,13.8,20.7,N/A,,Clear,340,2013-11-23 15:55:00
10:55 AM,19.9,9.0,62,30.80,10.0,NNW,13.8,20.7,N/A,,Clear,330,2013-11-23 16:55:00
11:55 AM,21.9,9.0,58,30.79,10.0,NNW,11.5,-,N/A,,Clear,330,2013-11-23 17:55:00
12:55 PM,24.1,8.1,51,30.79,10.0,NNW,12.7,21.9,N/A,,Clear,330,2013-11-23 18:55:00
1:55 PM,24.1,7.0,48,30.79,10.0,NNW,18.4,25.3,N/A,,Clear,340,2013-11-23 19:55:00
2:55 PM,23.0,5.0,46,30.80,10.0,NNW,15.0,23.0,N/A,,Clear,340,2013-11-23 20:55:00
3:55 PM,21.0,3.0,46,30.82,10.0,NNW,11.5,-,N/A,,Clear,340,2013-11-23 21:55:00
4:55 PM,16.0,3.9,59,30.82,10.0,North,8.1,-,N/A,,Clear,350,2013-11-23 22:55:00
5:55 PM,15.1,5.0,64,30.83,10.0,North,6.9,-,N/A,,Clear,360,2013-11-23 23:55:00
6:55 PM,14.0,5.0,67,30.83,10.0,NNW,5.8,-,N/A,,Clear,340,2013-11-24 00:55:00
7:55 PM,12.9,5.0,71,30.82,10.0,North,8.1,-,N/A,,Clear,360,2013-11-24 01:55:00
8:55 PM,12.0,5.0,73,30.83,10.0,North,6.9,-,N/A,,Clear,350,2013-11-24 02:55:00
9:55 PM,12.0,3.9,70,30.83,10.0,North,5.8,-,N/A,,Clear,350,2013-11-24 03:55:00
10:55 PM,10.9,3.9,73,30.82,10.0,NNW,4.6,-,N/A,,Clear,340,2013-11-24 04:55:00
11:55 PM,10.0,3.9,76,30.82,10.0,North,5.8,-,N/A,,Clear,350,2013-11-24 05:55:00